Regional Weather Roundup
Issued by NWS

Home | Current Version | Previous Version | Text Only | Print | Product List | Glossary Off
Versions: 1 2 3 4 5 6 7 8 9 10 11 12 13 14 15 16 17 18 19 20 21 22 23 24 25 26 27 28 29 30 31 32 33 34 35 36 37 38 39 40 41 42 43 44 45 46 47 48 49 50

000
ASUS43 KDMX 292207
RWRIA

WEATHER ROUNDUP FOR IOWA
NATIONAL WEATHER SERVICE DES MOINES IA
500 PM CDT TUE JUL 29 2014

NOTE: "FAIR" INDICATES FEW OR NO CLOUDS BELOW 12,000 FEET WITH NO
SIGNIFICANT WEATHER AND/OR OBSTRUCTIONS TO VISIBILITY.

* - THESE STATIONS ARE NOT NWS STATIONS...THUS NOT UNDER NWS
QUALITY CONTROL.  THEY ALSO DO NOT REPORT WEATHER SUCH
AS PRECIPITATION OR FOG.

IAZ001>003-012>014-020>022-031>034-043>046-292300-
   NORTHWEST IOWA

CITY           SKY/WX    TMP DP  RH WIND       PRES   REMARKS
CARROLL *      MOSUNNY   73  55  53 NW9       30.14F
CHEROKEE *     MOSUNNY   73  52  46 NW3       30.15F
DENISON *      MOSUNNY   73  54  49 NW7G14    30.14F
LE MARS *      MOSUNNY   75  54  46 N7        30.16F
ORANGE CITY *  MOSUNNY   73  52  46 NW7       30.16F
SHELDON *      PTSUNNY   72  55  56 CALM      30.15F
SIOUX CITY     PTSUNNY   76  54  46 N9        30.15F
SPENCER        MOSUNNY   76  54  46 W6        30.14F
STORM LAKE *   MOSUNNY   72  55  56 NW7       30.16F
$$

IAZ055>058-069>071-079>083-090>094-292300-
   SOUTHWEST IOWA

CITY           SKY/WX    TMP DP  RH WIND       PRES   REMARKS
ATLANTIC *     MOSUNNY   75  55  50 N9        30.14F
AUDUBON *      SUNNY     77  57  50 NW8       30.16F
CLARINDA *     MOSUNNY   79  59  50 N7        30.15F HX  80
COUNCIL BLFS * PTSUNNY   77  57  50 NE9       30.14F
CRESTON *      MOSUNNY   75  55  50 NW10      30.14F
HARLAN  *      PTSUNNY   73  55  53 N8        30.18F
LAMONI         MOSUNNY   75  55  49 N8        30.13F
RED OAK *      PTSUNNY   77  57  50 N10       30.14F
SHENANDOAH *   MOSUNNY   77  57  50 N8        30.14F
$$

IAZ047>049-059>061-072>074-084-292300-
   CENTRAL IOWA

CITY           SKY/WX    TMP DP  RH WIND       PRES   REMARKS
AMES           PTSUNNY   77  54  44 N6        30.11F
ANKENY *       MOSUNNY   77  54  44 NW9       30.11F
CHARITON *     MOSUNNY   75  55  50 NW6       30.12F
DES MOINES     MOSUNNY   80  52  37 W8        30.11F HX  80
GRINNELL*      PTSUNNY   73  57  56 NW6       30.11F
KNOXVILLE *    MOSUNNY   77  54  44 NW9       30.10F
MARSHALLTOWN   PTSUNNY   77  58  51 W7        30.10F
PELLA *        SUNNY     79  57  47 W8        30.11F HX  80
PERRY *          N/A     77  55  47 NW5       30.13F
$$

IAZ004>006-015-016-023>025-035-036-292300-
   NORTH CENTRAL IOWA

CITY           SKY/WX    TMP DP  RH WIND       PRES   REMARKS
ALGONA *       SUNNY     75  54  46 NW9       30.13F
CLARION *      SUNNY     77  54  44 NW8       30.12F
ESTHERVILLE    PTSUNNY   74  52  46 N12       30.13F
FORT DODGE *   PTSUNNY   75  57  53 NW5       30.14S
MASON CITY     MOSUNNY   77  53  43 NW10      30.12F
FOREST CITY *  PTSUNNY   73  54  49 E14G26    30.11F
IOWA FALLS *     N/A     77  54  44 NW8       30.12S
$$

IAZ007>011-017>019-026>030-037>042-050>054-066-292300-
   NORTHEAST IOWA

CITY           SKY/WX    TMP DP  RH WIND       PRES   REMARKS
CEDAR RAPIDS   MOSUNNY   77  54  44 NW12      30.07F
CHARLES CITY * MOSUNNY   75  57  53 NW9G17    30.09F
CLINTON *      MOSUNNY   77  57  50 NW9       30.07F
DECORAH *      MOSUNNY   73  57  56 VRB7      30.05F
DUBUQUE        SUNNY     77  58  51 W12       30.05F
MONTICELLO *   SUNNY     77  59  53 W14G20    30.05F
OELWEIN *      MOSUNNY   75  57  53 NW12G17   30.08F
WATERLOO       SUNNY     78  54  43 NW10      30.07F
$$

IAZ064-065-067-068-078-292300-
   EAST CENTRAL IOWA

CITY           SKY/WX    TMP DP  RH WIND       PRES   REMARKS
DAVENPORT      PTSUNNY   76  57  51 W13       30.06F
IOWA CITY      SUNNY     78  56  46 NW7       30.08F
MT. PLEASANT * PTSUNNY   77  54  44 NW9       30.10S
MUSCATINE *    SUNNY     79  55  44 NW8       30.07F
QUAD CITIES    MOSUNNY   79  56  45 W13       30.05F HX  80
$$

IAZ062-063-075>077-085>089-095>099-292300-
   SOUTHEAST IOWA

CITY           SKY/WX    TMP DP  RH WIND       PRES   REMARKS
BURLINGTON     SUNNY     78  57  48 NW9       30.08F
FAIRFIELD *    SUNNY     77  55  47 W10       30.10F
FORT MADISON * MOSUNNY   79  57  47 W10       30.10F HX  80
KEOKUK *       MOSUNNY   77  59  53 W9        30.09F
OSKALOOSA *      N/A     77  57  50 N8        30.10F
CENTERVILLE *  SUNNY     77  57  50 NW9       30.13F
OTTUMWA        SUNNY     77  55  46 W8        30.09F
WASHINGTON *   SUNNY     77  59  53 VRB6G13   30.09F
$$

ABBREVIATIONS USED IN REMARKS
   TC - TEMPERATURES IN CELSIUS
  WCI - WIND CHILL INDEX
   HX - HEAT INDEX
  VSB - VISIBILITY
$$




USA.gov is the U.S. government's official web portal to all federal, state and local government web resources and services.